This is the latest recevied weather packets stored in our database for station/object VA3JLF-1. If no packets are shown the sender has not sent any weather packets the latest 10 day(s).
| Time | Temp. | Humidity | Pressure | Rain* | Wind** | Luminosity | Snow |
|---|---|---|---|---|---|---|---|
| 1778147948 | 5° C | 82% | 1008.4 hPa | 0 mm | - | - | - |
| 1778147348 | 5° C | 76% | 1008.1 hPa | 0 mm | - | - | - |
| 1778146748 | 5° C | 76% | 1008.2 hPa | 0 mm | - | - | - |
| 1778146148 | 5° C | 77% | 1008.3 hPa | 0 mm | - | - | - |
| 1778145548 | 5° C | 77% | 1008.1 hPa | 0 mm | - | - | - |
| 1778144949 | 5° C | 74% | 1008.5 hPa | 0 mm | - | - | - |
| 1778144348 | 5° C | 73% | 1008.1 hPa | 0 mm | - | - | - |
| 1778143748 | 5° C | 72% | 1008.1 hPa | 0 mm | - | - | - |
| 1778143153 | 5° C | - | - | 0 mm | - | - | - |
| 1778143150 | 5° C | 71% | 1008.1 hPa | 0 mm | - | - | - |
| 1778142548 | 5° C | 72% | 1008.2 hPa | 0 mm | - | - | - |
| 1778141948 | 5° C | 73% | 1008.2 hPa | 0 mm | - | - | - |
| 1778141348 | 5° C | 71% | 1008.2 hPa | 0 mm | - | - | - |
| 1778140748 | 5.56° C | 71% | 1008.5 hPa | 0 mm | - | - | - |
| 1778140148 | 5.56° C | 70% | 1008.3 hPa | 0 mm | - | - | - |
| 1778139548 | 5.56° C | 69% | 1008.1 hPa | 0 mm | - | - | - |
| 1778138948 | 5.56° C | 71% | 1008.2 hPa | 0 mm | - | - | - |
| 1778138348 | 5.56° C | 70% | 1008.1 hPa | 0 mm | - | - | - |
| 1778137748 | 5.56° C | 70% | 1008.2 hPa | 0 mm | - | - | - |
| 1778137147 | 5.56° C | 71% | 1008.3 hPa | 0 mm | - | - | - |
| 1778136548 | 6.11° C | 69% | 1008.1 hPa | 0 mm | - | - | - |
| 1778135947 | 6.11° C | 69% | 1008.1 hPa | 0 mm | - | - | - |
| 1778135348 | 6.11° C | 70% | 1007.7 hPa | 0 mm | - | - | - |
| 1778134747 | 6.11° C | 70% | 1008.2 hPa | 0 mm | - | - | - |
| 1778134148 | 6.11° C | 73% | 1008.2 hPa | 0 mm | - | - | - |
* Rain latest hour (hover to see other rain measurements)
** Current wind speed in m/s (hover to see current wind gust speed)